"Pseudo-MPEC" for 2012-057B = NORAD 38868 = Breeze-M Rkt

Created 2016 Jun 7 1:11:58 UT using Find_Orb

Astrometry:
2012-057B    tC2016 04 26.03192 12 36 54.74 +06 07 47.9          13.6 R D0544Y00
2012-057B    tC2016 04 26.03316 12 38 19.86 +06 07 18.1          13.7 R D0544Y00
2012-057B    tC2016 04 26.03450 12 39 52.25 +06 06 45.8          13.7 R D0544Y00
2012-057B    tC2016 04 26.03843 12 44 21.94 +06 05 07.3          13.7 R D0544Y00
2012-057B    tC2016 04 26.03953 12 45 37.51 +06 04 39.3          13.5 R D0544Y00
2012-057B    tC2016 04 26.04064 12 46 54.18 +06 04 10.4          13.5 R D0544Y00
2012-057B    tC2016 04 26.06233 13 11 31.69 +05 53 45.3          13.6 R      Y00
2012-057B    tC2016 04 26.06335 13 12 40.97 +05 53 12.7          13.5 R D0544Y00
2012-057B    tC2016 04 26.06447 13 13 56.99 +05 52 36.7          13.4 R D0544Y00

Station data:
(Y00) SONEAR Observatory, Oliveira (S20.71513 W44.78496)  Brazil.   Observers
    C. Jacques, E. Pimentel, J. Barros.  Measurer C. Jacques.  0.28-m f/2.2
    astrograph + CCD.

Orbital elements:  2012-057B = NORAD 38868 = Breeze-M Rkt
   Perigee 2016 Apr 25.647342 +/- 0.0247 TT = 15:32:10 (JD 2457504.147342)
Epoch 2016 Apr 26.0 TT = JDT 2457504.5                        Find_Orb
M 111.56107 +/- 9                   (J2000 equatorial)
n 316.34330235 +/- 5.22             Peri.  342.85571 +/- 8
a 46043.0845 +/- 506                Node    78.02954 +/- 0.035
e   0.0574770 +/- 0.00782           Incl.    2.86493 +/- 0.027
P1638.70m/1.138d           H 30.6   G  0.15   U 13.8  
q 43396.6626 +/- 744    Q 48689.5063 +/- 460
From 9 observations 2016 Apr. 26 (46.9 min); mean residual 2".111
Residuals in arcseconds: 
160426 Y00 1.77+ .043+    160426 Y00 3.82- .161-    160426 Y00 2.82- .333+    
160426 Y00 2.10- .079-    160426 Y00 2.26- .051+    160426 Y00 .204- 110µ-    
160426 Y00 .778+ .156+    160426 Y00 6.16+ .058-    160426 Y00 2.49+ .285-    

Ephemerides (geocentric):
Date (UTC) HH   RA              Dec         delta   r     elong  mag " sig PA
---- -- -- --  ------------   ------------  ------ ------ -----  --- ---- ---
2016 04 26 00  11 54 35.846   +02 49 03.27   47156 1.0065 141.6 14.6  113  78
2016 04 26 01  12 44 17.382   +02 38 17.87   47660 1.0066 152.3 14.3  5.7 119
2016 04 26 02  13 33 00.304   +02 20 33.50   48080 1.0066 161.0 14.1   45 117
2016 04 26 03  14 20 57.056   +01 56 54.83   48398 1.0066 164.4 14.0  244 102
2016 04 26 04  15 08 21.256   +01 28 30.68   48603 1.0066 160.0 14.1  590  98
2016 04 26 05  15 55 27.277   +00 56 32.31   48686 1.0066 151.3 14.4 1068  97
2016 04 26 06  16 42 29.926   +00 22 13.04   48645 1.0066 141.0 14.7 1666  96
2016 04 26 07  17 29 44.168   -00 13 11.19   48480 1.0066 130.2 15.0 2369  95
2016 04 26 08  18 17 24.857   -00 48 20.86   48199 1.0065 118.9 15.3 3159  95
2016 04 26 09  19 05 46.414   -01 21 51.90   47812 1.0065 107.4 15.6 4013  94
2016 04 26 10  19 55 02.396   -01 52 15.26   47335 1.0064  95.6 16.0 4905  93
2016 04 26 11  20 45 24.921   -02 17 57.72   46787 1.0064  83.5 16.5 5803  93
2016 04 26 12  21 37 03.910   -02 37 24.65   46195 1.0063  71.1 17.1 6668  92
2016 04 26 13  22 30 06.166   -02 49 05.47   45587 1.0063  58.5 17?? 7455  91
2016 04 26 14  23 24 34.357   -02 51 42.47   44996 1.0062  45.8 19?? 8116  90
2016 04 26 15  00 20 26.061   -02 44 22.53   44455 1.0062  33.3 20?? 8600  89
2016 04 26 16  01 17 33.101   -02 26 50.38   43998 1.0062  21.9 23?? 8866  88
2016 04 26 17  02 15 41.448   -01 59 40.24   43656 1.0062  15.7 25?? 8885  88
2016 04 26 18  03 14 31.883   -01 24 21.62   43451 1.0062  20.7 23?? 8648  87
2016 04 26 19  04 13 41.475   -00 43 15.58   43399 1.0063  32.2 20?? 8174  87
2016 04 26 20  05 12 45.687   +00 00 39.77   43504 1.0063  45.4 19?? 7504  86
2016 04 26 21  06 11 20.727   +00 44 11.89   43758 1.0064  59.2 17?? 6698  86
2016 04 26 22  07 09 05.703   +01 24 18.70   44143 1.0064  72.9 16.9 5829  86
2016 04 26 23  08 05 44.213   +01 58 29.33   44632 1.0065  86.5 16.3 4963  87
2016 04 27 00  09 01 05.200   +02 24 56.29   45195 1.0066  99.8 15.8 4163  87
2016 04 27 01  09 55 03.102   +02 42 38.40   45796 1.0067 112.6 15.4 3474  88
2016 04 27 02  10 47 37.445   +02 51 16.32   46402 1.0068 125.1 15.0 2929  89
2016 04 27 03  11 38 52.115   +02 51 04.14   46983 1.0068 137.0 14.7 2547  90
2016 04 27 04  12 28 54.499   +02 42 39.92   47509 1.0069 148.0 14.4 2336  91
2016 04 27 05  13 17 54.641   +02 26 57.35   47957 1.0069 157.7 14.2 2297  92
2016 04 27 06  14 06 04.518   +02 04 59.31   48309 1.0069 163.7 14.0 2425  93
2016 04 27 07  14 53 37.438   +01 37 53.74   48551 1.0069 162.3 14.0 2712  94
2016 04 27 08  15 40 47.589   +01 06 51.37   48673 1.0069 154.9 14.3 3147  94
2016 04 27 09  16 27 49.686   +00 33 04.95   48671 1.0069 145.2 14.6 3716  94
2016 04 27 10  17 14 58.685   -00 02 10.37   48545 1.0069 134.5 14.9 4406  94
2016 04 27 11  18 02 29.515   -00 37 36.23   48299 1.0069 123.4 15.2 5198  94
2016 04 27 12  18 50 36.774   -01 11 49.95   47944 1.0068 112.0 15.5 6072  94
2016 04 27 13  19 39 34.338   -01 43 23.92   47493 1.0068 100.3 15.9 7001  93
2016 04 27 14  20 29 34.838   -02 10 45.95   46965 1.0067  88.4 16.3 7954  93
2016 04 27 15  21 20 48.960   -02 32 21.27   46384 1.0066  76.1 16.8 8893  92
2016 04 27 16  22 13 24.573   -02 46 37.21   45778 1.0066  63.6 17.6 9770  91
2016 04 27 17  23 07 25.736   -02 52 10.82   45178 1.0066  50.9 18?? 175'  90
2016 04 27 18  00 02 51.707   -02 47 59.91   44618 1.0065  38.2 20?? 185'  89
2016 04 27 19  00 59 36.159   -02 33 35.99   44132 1.0065  26.2 22?? 192'  89
2016 04 27 20  01 57 26.881   -02 09 16.93   43751 1.0065  17.3 24?? 194'  88
2016 04 27 21  02 56 06.186   -01 36 14.95   43501 1.0065  17.9 24?? 191'  87
2016 04 27 22  03 55 12.137   -00 56 36.23   43400 1.0065  27.6 21?? 185'  87
2016 04 27 23  04 54 20.483   -00 13 09.61   43456 1.0066  40.3 19?? 174'  87
2016 04 28 00  05 53 06.975   +00 30 53.94   43664 1.0066  53.9 18?? 9676  87
2016 04 28 01  06 51 09.620   +01 12 26.31   44010 1.0067  67.6 17.2 8772  87